When you browse on this site, cookies collect data to enhance your experience and personalize the content and advertising you see.
Visit our Privacy Policy to learn more. By continuing to use the site, you agree to this use of cookies and data.
  • Em Portugal
  • Lista de países
  • Para 7 dias
  • Temperatura da água
  • Mapa do tempo
  • Widgets de tempo
  • user-avatar
    Iniciar Sessão

    Previsão horária em Shkoder

    Hoje, 15 Outubro, Terça-feira

    Tempo Temperatura Precipitação Vento Pressão Humidade
    00:00 +17°C° 0 mm 0 m/s 743 mmHg 65%
    01:00 +18°C° 0 mm 1 m/s 743 mmHg 65%
    02:00 +18°C° 0 mm 1 m/s 742 mmHg 66%
    03:00 +18°C° 0 mm 1 m/s 742 mmHg 66%
    04:00 +16°C° 0 mm 0 m/s 742 mmHg 67%
    05:00 +18°C° 0 mm 1 m/s 742 mmHg 66%
    06:00 +19°C° 0 mm 1 m/s 742 mmHg 65%
    07:00 +20°C° 0 mm 1 m/s 742 mmHg 61%
    08:00 +22°C° 0 mm 1 m/s 742 mmHg 57%
    09:00 +23°C° 0 mm 1 m/s 742 mmHg 52%
    10:00 +25°C° 0 mm 1 m/s 742 mmHg 48%
    11:00 +25°C° 0 mm 1 m/s 742 mmHg 47%
    12:00 +26°C° 0 mm 2 m/s 741 mmHg 46%
    13:00 +26°C° 0 mm 2 m/s 741 mmHg 45%
    14:00 +25°C° 0 mm 2 m/s 741 mmHg 50%
    15:00 +25°C° 0 mm 1 m/s 740 mmHg 54%
    16:00 +24°C° 0 mm 1 m/s 740 mmHg 59%
    17:00 +22°C° 0 mm 1 m/s 740 mmHg 62%
    18:00 +21°C° 0 mm 1 m/s 740 mmHg 65%
    19:00 +17°C° 0 mm 0 m/s 740 mmHg 69%
    20:00 +19°C° 0 mm 1 m/s 740 mmHg 67%
    21:00 +19°C° 0 mm 1 m/s 741 mmHg 65%
    22:00 +19°C° 0 mm 1 m/s 741 mmHg 63%
    23:00 +18°C° 0 mm 1 m/s 741 mmHg 64%

    Amanhã, 16 Outubro, Quarta-feira

    Tempo Temperatura Precipitação Vento Pressão Humidade
    00:00 +18°C° 0 mm 1 m/s 741 mmHg 64%
    01:00 +18°C° 0 mm 1 m/s 741 mmHg 64%
    02:00 +18°C° 0 mm 1 m/s 741 mmHg 64%
    03:00 +16°C° 0 mm 1 m/s 740 mmHg 64%
    04:00 +16°C° 0 mm 1 m/s 740 mmHg 63%
    05:00 +18°C° 0 mm 1 m/s 740 mmHg 62%
    06:00 +18°C° 0 mm 1 m/s 740 mmHg 60%
    07:00 +19°C° 0 mm 1 m/s 740 mmHg 59%
    08:00 +21°C° 0 mm 1 m/s 740 mmHg 53%
    09:00 +23°C° 0 mm 1 m/s 741 mmHg 48%
    10:00 +25°C° 0 mm 1 m/s 741 mmHg 43%
    11:00 +25°C° 0 mm 1 m/s 740 mmHg 42%
    12:00 +26°C° 0 mm 1 m/s 740 mmHg 41%
    13:00 +26°C° 0 mm 2 m/s 740 mmHg 40%
    14:00 +25°C° 0 mm 1 m/s 740 mmHg 45%
    15:00 +25°C° 0 mm 1 m/s 740 mmHg 49%
    16:00 +24°C° 0 mm 1 m/s 739 mmHg 54%
    17:00 +22°C° 0 mm 1 m/s 740 mmHg 58%
    18:00 +21°C° 0 mm 1 m/s 740 mmHg 62%
    19:00 +19°C° 0 mm 1 m/s 740 mmHg 66%
    20:00 +19°C° 0 mm 1 m/s 740 mmHg 64%
    21:00 +19°C° 0 mm 1 m/s 740 mmHg 63%
    22:00 +19°C° 0 mm 1 m/s 741 mmHg 62%
    23:00 +19°C° 0 mm 1 m/s 741 mmHg 61%

    Depois de amanhã, 17 Outubro, Quinta-feira

    Tempo Temperatura Precipitação Vento Pressão Humidade
    00:00 +18°C° 0 mm 1 m/s 741 mmHg 59%
    01:00 +18°C° 0 mm 1 m/s 741 mmHg 58%
    02:00 +18°C° 0 mm 1 m/s 741 mmHg 57%
    03:00 +18°C° 0 mm 1 m/s 741 mmHg 56%
    04:00 +18°C° 0 mm 1 m/s 741 mmHg 55%
    05:00 +18°C° 0 mm 1 m/s 741 mmHg 55%
    06:00 +18°C° 0 mm 1 m/s 741 mmHg 54%
    07:00 +19°C° 0 mm 1 m/s 741 mmHg 54%
    08:00 +21°C° 0 mm 1 m/s 741 mmHg 49%
    09:00 +23°C° 0 mm 1 m/s 741 mmHg 44%
    10:00 +25°C° 0 mm 1 m/s 741 mmHg 40%
    11:00 +25°C° 0 mm 1 m/s 741 mmHg 39%
    12:00 +26°C° 0 mm 1 m/s 741 mmHg 39%
    13:00 +26°C° 0 mm 2 m/s 741 mmHg 38%
    14:00 +25°C° 0 mm 2 m/s 741 mmHg 44%
    15:00 +24°C° 0 mm 1 m/s 740 mmHg 50%
    16:00 +23°C° 0 mm 1 m/s 740 mmHg 56%
    17:00 +22°C° 0 mm 1 m/s 741 mmHg 59%
    18:00 +20°C° 0 mm 1 m/s 741 mmHg 63%
    19:00 +19°C° 0 mm 1 m/s 741 mmHg 67%
    20:00 +19°C° 0 mm 1 m/s 741 mmHg 66%
    21:00 +18°C° 0 mm 1 m/s 741 mmHg 65%
    22:00 +18°C° 0 mm 1 m/s 742 mmHg 64%
    23:00 +18°C° 0 mm 1 m/s 742 mmHg 64%

    18 Outubro, Sexta-feira

    Tempo Temperatura Precipitação Vento Pressão Humidade
    00:00 +18°C° 0 mm 1 m/s 741 mmHg 63%
    01:00 +18°C° 0 mm 1 m/s 741 mmHg 63%
    02:00 +16°C° 0 mm 1 m/s 741 mmHg 63%
    03:00 +16°C° 0 mm 1 m/s 741 mmHg 62%
    04:00 +16°C° 0 mm 1 m/s 741 mmHg 62%
    05:00 +18°C° 0 mm 1 m/s 741 mmHg 61%
    06:00 +18°C° 0 mm 1 m/s 741 mmHg 60%
    07:00 +18°C° 0 mm 1 m/s 741 mmHg 59%
    08:00 +20°C° 0 mm 1 m/s 741 mmHg 54%
    09:00 +22°C° 0 mm 1 m/s 742 mmHg 49%
    10:00 +24°C° 0 mm 1 m/s 742 mmHg 44%
    11:00 +25°C° 0 mm 1 m/s 741 mmHg 43%
    12:00 +25°C° 0 mm 1 m/s 741 mmHg 43%
    13:00 +26°C° 0 mm 2 m/s 741 mmHg 43%
    14:00 +25°C° 0 mm 2 m/s 741 mmHg 48%
    15:00 +24°C° 0 mm 2 m/s 740 mmHg 54%
    16:00 +23°C° 0 mm 1 m/s 740 mmHg 59%
    17:00 +22°C° 0 mm 1 m/s 741 mmHg 64%
    18:00 +20°C° 0 mm 1 m/s 741 mmHg 69%
    19:00 +19°C° 0 mm 1 m/s 741 mmHg 74%
    20:00 +18°C° 0 mm 1 m/s 741 mmHg 74%
    21:00 +18°C° 0 mm 1 m/s 741 mmHg 74%
    22:00 +16°C° 0 mm 0 m/s 741 mmHg 73%
    23:00 +18°C° 0 mm 1 m/s 741 mmHg 72%

    19 Outubro, Sábado

    Tempo Temperatura Precipitação Vento Pressão Humidade
    00:00 +16°C° 0 mm 1 m/s 741 mmHg 72%
    01:00 +16°C° 0 mm 1 m/s 741 mmHg 71%
    02:00 +16°C° 0 mm 1 m/s 741 mmHg 70%
    03:00 +16°C° 0 mm 1 m/s 741 mmHg 70%
    04:00 +16°C° 0 mm 1 m/s 741 mmHg 69%
    05:00 +16°C° 0 mm 1 m/s 741 mmHg 67%
    06:00 +18°C° 0 mm 1 m/s 741 mmHg 66%
    07:00 +18°C° 0 mm 1 m/s 741 mmHg 64%
    08:00 +20°C° 0 mm 1 m/s 741 mmHg 59%
    09:00 +22°C° 0 mm 1 m/s 741 mmHg 53%
    10:00 +24°C° 0 mm 1 m/s 741 mmHg 48%
    11:00 +24°C° 0 mm 1 m/s 741 mmHg 47%
    12:00 +25°C° 0 mm 2 m/s 741 mmHg 46%
    13:00 +25°C° 0 mm 2 m/s 740 mmHg 45%
    14:00 +24°C° 0 mm 2 m/s 740 mmHg 50%
    15:00 +24°C° 0 mm 2 m/s 740 mmHg 55%
    16:00 +23°C° 0 mm 1 m/s 740 mmHg 60%
    17:00 +21°C° 0 mm 1 m/s 740 mmHg 65%
    18:00 +20°C° 0 mm 1 m/s 741 mmHg 70%
    19:00 +16°C° 0 mm 0 m/s 741 mmHg 75%
    20:00 +16°C° 0 mm 0 m/s 741 mmHg 75%
    21:00 +18°C° 0 mm 1 m/s 741 mmHg 74%
    22:00 +18°C° 0 mm 1 m/s 742 mmHg 74%
    23:00 +18°C° 0 mm 1 m/s 742 mmHg 73%

    20 Outubro, Domingo

    Tempo Temperatura Precipitação Vento Pressão Humidade
    00:00 +16°C° 0 mm 1 m/s 742 mmHg 72%
    01:00 +16°C° 0 mm 1 m/s 741 mmHg 72%
    02:00 +16°C° 0 mm 1 m/s 741 mmHg 72%
    03:00 +16°C° 0 mm 1 m/s 741 mmHg 72%
    04:00 +16°C° 0 mm 1 m/s 741 mmHg 73%
    05:00 +16°C° 0 mm 1 m/s 741 mmHg 71%
    06:00 +18°C° 0 mm 1 m/s 742 mmHg 69%
    07:00 +18°C° 0 mm 1 m/s 742 mmHg 68%
    08:00 +20°C° 0 mm 1 m/s 742 mmHg 62%
    09:00 +22°C° 0 mm 1 m/s 742 mmHg 56%
    10:00 +23°C° 0 mm 1 m/s 742 mmHg 51%
    11:00 +24°C° 0 mm 1 m/s 742 mmHg 50%
    12:00 +24°C° 0 mm 1 m/s 742 mmHg 50%
    13:00 +25°C° 0 mm 2 m/s 742 mmHg 49%
    14:00 +24°C° 0 mm 1 m/s 742 mmHg 54%
    15:00 +23°C° 0 mm 1 m/s 741 mmHg 59%
    16:00 +22°C° 0 mm 1 m/s 741 mmHg 64%
    17:00 +21°C° 0 mm 1 m/s 741 mmHg 68%
    18:00 +20°C° 0 mm 1 m/s 742 mmHg 72%
    19:00 +18°C° 0 mm 1 m/s 742 mmHg 76%
    20:00 +18°C° 0 mm 1 m/s 742 mmHg 73%
    21:00 +18°C° 0 mm 1 m/s 743 mmHg 71%
    22:00 +18°C° 0 mm 1 m/s 743 mmHg 69%
    23:00 +18°C° 0 mm 1 m/s 743 mmHg 67%
    Mostrar mais